Regional Weather Roundup
Issued by NWS Raleigh/Durham, NC

Home | Current Version | Previous Version | Text Only | Print | Product List | Glossary On
Versions: 1 2 3 4 5 6 7 8 9 10 11 12 13 14 15 16 17 18 19 20 21 22 23 24 25 26 27 28 29 30 31 32 33 34 35 36 37 38 39 40 41 42 43 44 45 46 47 48 49 50
000
ASUS42 KRAH 280810
RWRRAH
NORTH CAROLINA WEATHER ROUNDUP
NATIONAL WEATHER SERVICE RALEIGH NC
400 AM EDT FRI AUG 28 2015

NOTE: "FAIR" INDICATES FEW OR NO CLOUDS BELOW 12,000 FEET WITH NO
SIGNIFICANT WEATHER AND/OR OBSTRUCTIONS TO VISIBILITY.

NCZ001-053-055-056-065-067-280900-
WESTERN NORTH CAROLINA

CITY           SKY/WX    TMP DP  RH WIND       PRES   REMARKS
ASHEVILLE      MOCLDY    60  58  92 CALM      30.19S
JEFFERSON      PTCLDY    60  55  81 CALM      30.23S
MORGANTON      CLEAR     61  61 100 CALM      30.20S
HICKORY        CLEAR     63  61  93 CALM      30.15R
RUTHERFORDTON  MOCLDY    63  63  98 NW3       30.16R
MOUNT AIRY     MOCLDY    67  62  84 CALM      30.18S
BOONE          CLEAR     57  57 100 CALM      30.23S
$$

NCZ021-022-025-041-071-084-088-280900-
CENTRAL NORTH CAROLINA

CITY           SKY/WX    TMP DP  RH WIND       PRES   REMARKS
CHARLOTTE      CLEAR     66  60  81 N3        30.13S
GREENSBORO     CLEAR     64  60  87 CALM      30.14R
WINSTON-SALEM  CLEAR     64  59  83 CALM      30.16S
RALEIGH-DURHAM PTCLDY    62  60  93 CALM      30.13R
FORT BRAGG     PTCLDY    67  62  86 NE6       30.08F
FAYETTEVILLE   PTCLDY    65  62  90 NE6       30.08F
BURLINGTON     CLEAR     59  59 100 CALM      30.14R
LAURINBURG     CLEAR     66  62  87 N5        30.10S
$$

NCZ011-015-027-028-043-044-047-080-103-280900-
NORTHEASTERN NORTH CAROLINA

CITY           SKY/WX    TMP DP  RH WIND       PRES   REMARKS
ROCKY MT-WILSO MOCLDY    65  61  87 NE3       30.12S
GREENVILLE     PTCLDY    63  63 100 CALM      30.11F
WASHINGTON     MOCLDY    67  63  86 NE3       30.09F
ELIZABETH CITY CLOUDY    72  65  78 N7        30.09F
MANTEO         CLOUDY    74  62  66 NE12      30.08F
CAPE HATTERAS  CLOUDY    74  68  81 NE8       30.06F
$$

NCZ078-087-090-091-093-098-101-280900-
SOUTHEASTERN NORTH CAROLINA

CITY           SKY/WX    TMP DP  RH WIND       PRES   REMARKS
LUMBERTON      PTCLDY    68  64  87 NE6       30.08S
GOLDSBORO      PTCLDY    66  63  91 N3        30.08F
KINSTON        PTCLDY    66  64  91 N3        30.09F
KENANSVILLE      N/A     67  64  90 CALM      30.09F
NEW BERN       MOCLDY    70  65  84 NE5       30.09S
CHERRY POINT   PTCLDY    73  65  75 NE8       30.07F
BEAUFORT       MOCLDY    71  68  90 NE8       30.05F
JACKSONVILLE   PTCLDY    68  63  84 N6        30.06F
WILMINGTON     MOCLDY    69  64  84 NE8       30.06S
$$




USA.gov is the U.S. government's official web portal to all federal, state and local government web resources and services.